When you browse on this site, cookies collect data to enhance your experience and personalize the content and advertising you see.
Visit our Privacy Policy to learn more. By continuing to use the site, you agree to this use of cookies and data.
  • en France
  • Liste des pays
  • À 7 jours
  • Température de l'eau
  • Carte satellitaire
  • Carte météo
  • Widgets météo
  • user-avatar
    Se connecter

    Météo par heure à Silistra

    Ce jour, 27 Mai, Lundi

    Heure Température Précipitation Vent Pression Humidité
    00:00 +18°C° 0 mm 3 m/s 757 mmHg 80%
    01:00 +18°C° 0 mm 3 m/s 757 mmHg 80%
    02:00 +17°C° 0 mm 2 m/s 757 mmHg 81%
    03:00 +17°C° 0 mm 2 m/s 757 mmHg 81%
    04:00 +17°C° 0 mm 2 m/s 757 mmHg 82%
    05:00 +17°C° 0 mm 2 m/s 757 mmHg 82%
    06:00 +19°C° 0 mm 2 m/s 757 mmHg 76%
    07:00 +21°C° 0 mm 3 m/s 758 mmHg 71%
    08:00 +24°C° 0 mm 3 m/s 758 mmHg 65%
    09:00 +26°C° 0 mm 3 m/s 758 mmHg 60%
    10:00 +27°C° 0 mm 4 m/s 758 mmHg 55%
    11:00 +29°C° 0 mm 4 m/s 757 mmHg 49%
    12:00 +29°C° 0 mm 4 m/s 757 mmHg 49%
    13:00 +29°C° 0 mm 5 m/s 757 mmHg 48%
    14:00 +30°C° 0 mm 5 m/s 757 mmHg 47%
    15:00 +29°C° 0 mm 5 m/s 757 mmHg 49%
    16:00 +28°C° 0 mm 5 m/s 756 mmHg 51%
    17:00 +27°C° 0 mm 6 m/s 756 mmHg 52%
    18:00 +25°C° 0 mm 5 m/s 756 mmHg 58%
    19:00 +22°C° 0 mm 5 m/s 756 mmHg 64%
    20:00 +20°C° 0 mm 4 m/s 756 mmHg 71%
    21:00 +19°C° 0 mm 4 m/s 756 mmHg 70%
    22:00 +17°C° 0 mm 5 m/s 756 mmHg 70%
    23:00 +17°C° 0 mm 5 m/s 756 mmHg 70%

    Demain, 28 Mai, Mardi

    Heure Température Précipitation Vent Pression Humidité
    00:00 +17°C° 0 mm 4 m/s 756 mmHg 72%
    01:00 +17°C° 0 mm 4 m/s 756 mmHg 74%
    02:00 +17°C° 0 mm 4 m/s 756 mmHg 76%
    03:00 +17°C° 0 mm 4 m/s 756 mmHg 78%
    04:00 +15°C° 0 mm 4 m/s 755 mmHg 80%
    05:00 +15°C° 0 mm 4 m/s 755 mmHg 82%
    06:00 +18°C° 0 mm 4 m/s 755 mmHg 76%
    07:00 +20°C° 0 mm 5 m/s 755 mmHg 69%
    08:00 +22°C° 0 mm 5 m/s 754 mmHg 63%
    09:00 +24°C° 0 mm 6 m/s 754 mmHg 58%
    10:00 +27°C° 0 mm 6 m/s 754 mmHg 54%
    11:00 +29°C° 0 mm 6 m/s 754 mmHg 49%
    12:00 +30°C° 0 mm 6 m/s 753 mmHg 48%
    13:00 +30°C° 0 mm 6 m/s 753 mmHg 47%
    14:00 +32°C° 0 mm 6 m/s 753 mmHg 46%
    15:00 +32°C° 0 mm 6 m/s 752 mmHg 49%
    16:00 +30°C° 0 mm 6 m/s 752 mmHg 51%
    17:00 +30°C° 0 mm 6 m/s 751 mmHg 54%
    18:00 +28°C° 0 mm 6 m/s 751 mmHg 58%
    19:00 +24°C° 0 mm 6 m/s 751 mmHg 63%
    20:00 +22°C° 0 mm 6 m/s 751 mmHg 68%
    21:00 +22°C° 0 mm 5 m/s 751 mmHg 68%
    22:00 +21°C° 0 mm 5 m/s 752 mmHg 68%
    23:00 +21°C° 0 mm 5 m/s 752 mmHg 68%

    Après-demain, 29 Mai, Mercredi

    Heure Température Précipitation Vent Pression Humidité
    00:00 +20°C° 0 mm 5 m/s 752 mmHg 69%
    01:00 +20°C° 0 mm 5 m/s 752 mmHg 69%
    02:00 +19°C° 0 mm 5 m/s 752 mmHg 70%
    03:00 +18°C° 0 mm 4 m/s 752 mmHg 70%
    04:00 +18°C° 0 mm 4 m/s 752 mmHg 71%
    05:00 +17°C° 0 mm 3 m/s 752 mmHg 71%
    06:00 +19°C° 0 mm 3 m/s 752 mmHg 70%
    07:00 +20°C° 0 mm 4 m/s 752 mmHg 69%
    08:00 +22°C° 0 mm 4 m/s 752 mmHg 68%
    09:00 +25°C° 0 mm 4 m/s 752 mmHg 62%
    10:00 +26°C° 0 mm 4 m/s 752 mmHg 57%
    11:00 +28°C° 0 mm 4 m/s 752 mmHg 51%
    12:00 +29°C° 0 mm 3 m/s 752 mmHg 48%
    13:00 +30°C° 0 mm 3 m/s 752 mmHg 46%
    14:00 +31°C° 0 mm 3 m/s 752 mmHg 43%
    15:00 +31°C° 0 mm 3 m/s 752 mmHg 44%
    16:00 +30°C° 0 mm 3 m/s 752 mmHg 45%
    17:00 +30°C° 0 mm 3 m/s 752 mmHg 46%
    18:00 +29°C° 0 mm 2 m/s 752 mmHg 50%
    19:00 +27°C° 0 mm 1 m/s 752 mmHg 55%
    20:00 +25°C° 0 mm 1 m/s 752 mmHg 59%
    21:00 +25°C° 0 mm 1 m/s 753 mmHg 61%
    22:00 +24°C° 0 mm 2 m/s 753 mmHg 63%
    23:00 +24°C° 0 mm 2 m/s 753 mmHg 65%

    30 Mai, Jeudi

    Heure Température Précipitation Vent Pression Humidité
    00:00 +23°C° 0 mm 2 m/s 753 mmHg 68%
    01:00 +21°C° 0 mm 2 m/s 753 mmHg 72%
    02:00 +21°C° 0 mm 2 m/s 753 mmHg 75%
    03:00 +21°C° 0 mm 1 m/s 754 mmHg 76%
    04:00 +21°C° 0 mm 1 m/s 754 mmHg 78%
    05:00 +18°C° 0 mm 0 m/s 754 mmHg 79%
    06:00 +22°C° 0 mm 1 m/s 754 mmHg 74%
    07:00 +24°C° 0 mm 1 m/s 754 mmHg 68%
    08:00 +26°C° 0 mm 1 m/s 754 mmHg 63%
    09:00 +27°C° 0.3 mm 1 m/s 754 mmHg 60%
    10:00 +28°C° 0.3 mm 2 m/s 754 mmHg 57%
    11:00 +29°C° 0.3 mm 2 m/s 754 mmHg 53%
    12:00 +30°C° 0.1 mm 2 m/s 754 mmHg 50%
    13:00 +30°C° 0.1 mm 2 m/s 754 mmHg 47%
    14:00 +31°C° 0.1 mm 2 m/s 754 mmHg 44%
    15:00 +31°C° 0 mm 2 m/s 753 mmHg 46%
    16:00 +30°C° 0 mm 2 m/s 753 mmHg 49%
    17:00 +30°C° 0 mm 2 m/s 753 mmHg 51%
    18:00 +28°C° 0 mm 2 m/s 753 mmHg 58%
    19:00 +26°C° 0 mm 3 m/s 754 mmHg 64%
    20:00 +24°C° 0 mm 3 m/s 754 mmHg 71%
    21:00 +22°C° 0.7 mm 3 m/s 754 mmHg 75%
    22:00 +21°C° 0.7 mm 3 m/s 754 mmHg 80%
    23:00 +19°C° 0.7 mm 2 m/s 754 mmHg 85%

    31 Mai, Vendredi

    Heure Température Précipitation Vent Pression Humidité
    00:00 +19°C° 0 mm 2 m/s 754 mmHg 86%
    01:00 +19°C° 0 mm 2 m/s 754 mmHg 86%
    02:00 +19°C° 0 mm 1 m/s 754 mmHg 86%
    03:00 +19°C° 0.1 mm 1 m/s 754 mmHg 88%
    04:00 +19°C° 0.1 mm 1 m/s 754 mmHg 90%
    05:00 +18°C° 0.1 mm 1 m/s 754 mmHg 91%
    06:00 +20°C° 0 mm 1 m/s 754 mmHg 87%
    07:00 +21°C° 0 mm 1 m/s 754 mmHg 82%
    08:00 +23°C° 0 mm 1 m/s 754 mmHg 78%
    09:00 +24°C° 0.2 mm 1 m/s 754 mmHg 75%
    10:00 +24°C° 0.2 mm 1 m/s 754 mmHg 71%
    11:00 +25°C° 0.2 mm 2 m/s 754 mmHg 68%
    12:00 +26°C° 0.1 mm 2 m/s 754 mmHg 64%
    13:00 +27°C° 0.1 mm 2 m/s 753 mmHg 60%
    14:00 +28°C° 0.1 mm 2 m/s 753 mmHg 56%
    15:00 +28°C° 0.3 mm 2 m/s 753 mmHg 57%
    16:00 +28°C° 0.3 mm 2 m/s 753 mmHg 58%
    17:00 +27°C° 0.3 mm 3 m/s 752 mmHg 59%
    18:00 +25°C° 1 mm 2 m/s 753 mmHg 67%
    19:00 +23°C° 1 mm 2 m/s 753 mmHg 76%
    20:00 +21°C° 1 mm 2 m/s 753 mmHg 84%
    21:00 +20°C° 0 mm 2 m/s 753 mmHg 87%
    22:00 +19°C° 0 mm 3 m/s 753 mmHg 90%
    23:00 +18°C° 0 mm 3 m/s 753 mmHg 93%

    1 Juin, Samedi

    Heure Température Précipitation Vent Pression Humidité
    00:00 +18°C° 0 mm 3 m/s 753 mmHg 93%
    01:00 +17°C° 0 mm 4 m/s 752 mmHg 93%
    02:00 +15°C° 0 mm 4 m/s 752 mmHg 93%
    03:00 +15°C° 0 mm 4 m/s 752 mmHg 93%
    04:00 +14°C° 0 mm 4 m/s 752 mmHg 93%
    05:00 +13°C° 0 mm 3 m/s 752 mmHg 93%
    06:00 +15°C° 0 mm 4 m/s 752 mmHg 88%
    07:00 +17°C° 0 mm 4 m/s 752 mmHg 83%
    08:00 +19°C° 0 mm 4 m/s 752 mmHg 78%
    09:00 +21°C° 0 mm 4 m/s 752 mmHg 72%
    10:00 +23°C° 0 mm 4 m/s 752 mmHg 65%
    11:00 +26°C° 0 mm 3 m/s 752 mmHg 59%
    12:00 +26°C° 0 mm 3 m/s 752 mmHg 55%
    13:00 +27°C° 0 mm 3 m/s 751 mmHg 52%
    14:00 +28°C° 0 mm 2 m/s 751 mmHg 48%
    15:00 +28°C° 0 mm 2 m/s 751 mmHg 48%
    16:00 +28°C° 0 mm 2 m/s 751 mmHg 48%
    17:00 +28°C° 0 mm 1 m/s 751 mmHg 47%
    18:00 +26°C° 0 mm 2 m/s 751 mmHg 54%
    19:00 +25°C° 0 mm 2 m/s 751 mmHg 60%
    20:00 +22°C° 0 mm 3 m/s 751 mmHg 67%
    21:00 +21°C° 1.1 mm 2 m/s 751 mmHg 75%
    22:00 +19°C° 1.1 mm 2 m/s 752 mmHg 83%
    23:00 +19°C° 1.1 mm 1 m/s 752 mmHg 91%
    Voir plus